Home > Weather > Cambridge > Past weeks

Flag for USA Past Weather in Cambridge, Massachusetts, USA — Yesterday and Last 2 Weeks

Now
78 °F

Scattered clouds.


Feels Like: 79 °F
Forecast: 56 / 85 °F
Wind: 10 mph from East

Location: Logan International Airport

Current Time: Jun 26, 2016 at 1:20:11 PM

Latest Report: Jun 26, 2016 at 11:54 AM


Visibility: 10 mi

Pressure: 30.19 "Hg

Humidity: 45%

Dew Point: 55 °F

Location of CambridgeLocation

Past Weather in Cambridge — Graph

°F

Cambridge Temperature Yesterday

Maximum temperature yesterday: 72 °F (at 10:54 AM)
Minimum temperature yesterday: 59 °F (at 4:54 AM)
Average temperature yesterday: 66 °F

High & Low Weather Summary for the Past Weeks

 TemperatureHumidityPressure
High86 °F (Jun 21, 1:54 PM)90% (Jun 11, 10:54 PM)30.33 "Hg (Jun 11, 10:54 PM)
Low54 °F (Jun 13, 1:54 AM)21% (Jun 21, 3:54 PM)29.48 "Hg (Jun 12, 11:54 AM)
Average68 °F56%29.93 "Hg
* Reported Jun 11 11:54 AM — Jun 26 11:54 AM, Cambridge, Weather by CustomWeather, © 2016

Note: Actual official high and low records may vary slightly from our data, if they occured in-between our weather recording intervals... More about our weather records

Advertising

Cambridge Weather History for the Previous 24 Hours

Scroll right to see more
 ConditionsComfort  
Time TempWeatherWind HumidityBarometerVisibility
11:54 AM
Sun, Jun 26
78 °FScattered clouds.10 mph45%30.19 "Hg10 mi
10:54 AM77 °FScattered clouds.7 mph47%30.20 "Hg10 mi
9:54 AM74 °FScattered clouds.8 mph53%30.21 "Hg10 mi
8:54 AM70 °FPassing clouds.7 mph61%30.23 "Hg10 mi
7:54 AM67 °FPassing clouds.3 mph66%30.22 "Hg10 mi
6:54 AM62 °FPassing clouds.3 mph80%30.22 "Hg10 mi
5:54 AM60 °FPassing clouds.5 mph80%30.22 "Hg10 mi
4:54 AM60 °FPassing clouds.6 mph78%30.23 "Hg10 mi
3:54 AM61 °FPassing clouds.6 mph75%30.23 "Hg10 mi
2:54 AM61 °FPassing clouds.7 mph78%30.22 "Hg10 mi
1:54 AM61 °FClear.7 mph78%30.21 "Hg10 mi
12:54 AM62 °FClear.5 mph70%30.21 "Hg10 mi
11:54 PM
Sat, Jun 25
64 °FPassing clouds.6 mph63%30.21 "Hg10 mi
10:54 PM64 °FPassing clouds.7 mph63%30.21 "Hg10 mi
9:54 PM64 °FPassing clouds.5 mph65%30.22 "Hg10 mi
8:54 PM65 °FPassing clouds.7 mph59%30.20 "Hg10 mi
7:54 PM64 °FPassing clouds.8 mph73%30.19 "Hg10 mi
6:54 PM66 °FPassing clouds.10 mph56%30.18 "Hg10 mi
5:54 PM67 °FPassing clouds.10 mph57%30.19 "Hg10 mi
4:54 PM68 °FPassing clouds.10 mph51%30.20 "Hg10 mi
3:54 PM70 °FPassing clouds.10 mph41%30.20 "Hg10 mi
2:54 PM71 °FPassing clouds.13 mph42%30.21 "Hg10 mi
1:54 PM71 °FPassing clouds.13 mph45%30.22 "Hg10 mi
Weather by CustomWeather, © 2016

See weather overviewHow to use our weather pages